Home > Weather > Auckland > Past weeks

Flag for New Zealand Past Weather in Auckland, New Zealand — Yesterday and Last 2 Weeks

Now
50 °F

Cool.


Feels Like: 48 °F
Forecast: 43 / 52 °F
Wind: 6 mph from Southeast

Location: Auckland Airport

Current Time: Jul 1, 2016 at 11:07:48 AM

Latest Report: Jul 1, 2016 at 10:30 AM


Visibility: N/A

Pressure: 30.07 "Hg

Humidity: 71%

Dew Point: 41 °F

Location of AucklandLocation

Past Weather in Auckland — Graph

°F

Auckland Temperature Yesterday

Maximum temperature yesterday: 59 °F (at 1:30 PM)
Minimum temperature yesterday: 50 °F (at 4:30 AM)
Average temperature yesterday: 54 °F

High & Low Weather Summary for the Past Weeks

 TemperatureHumidityPressure
High64 °F (Jun 20, 1:30 PM)100% (Jun 17, 3:00 AM)30.39 "Hg (Jun 17, 3:00 AM)
Low45 °F (Jun 17, 3:00 AM)63% (Jun 26, 3:30 PM)29.47 "Hg (Jun 26, 12:30 AM)
Average56 °F89%29.94 "Hg
* Reported Jun 16 10:00 AM — Jul 1 10:00 AM, Auckland, Weather by CustomWeather, © 2016

Note: Actual official high and low records may vary slightly from our data, if they occured in-between our weather recording intervals... More about our weather records

Advertising

Auckland Weather History for the Previous 24 Hours

Scroll right to see more
 ConditionsComfort  
Time TempWeatherWind HumidityBarometerVisibility
10:00 AM
Fri, Jul 1
48 °FCool.5 mph71%30.07 "HgN/A
9:30 AM46 °FCool.3 mph76%30.07 "HgN/A
9:00 AM46 °FCool.3 mph82%30.07 "HgN/A
8:30 AM45 °FQuite cool.5 mph81%30.04 "HgN/A
8:00 AM45 °FQuite cool.3 mph87%30.04 "HgN/A
7:30 AM45 °FQuite cool.5 mph81%30.01 "HgN/A
7:00 AM45 °FQuite cool.6 mph87%30.01 "HgN/A
6:30 AM45 °FQuite cool.6 mph81%29.98 "HgN/A
6:00 AM46 °FCool.9 mph82%29.98 "HgN/A
5:30 AM46 °FCool.10 mph82%29.95 "HgN/A
5:00 AM45 °FQuite cool.6 mph87%29.95 "HgN/A
4:30 AM45 °FQuite cool.5 mph87%29.95 "HgN/A
4:00 AM46 °FCool.6 mph82%29.95 "HgN/A
3:30 AM46 °FCool.8 mph87%29.92 "HgN/A
3:00 AM48 °FCool.9 mph82%29.92 "HgN/A
2:30 AM48 °FCool.10 mph82%29.89 "HgN/A
2:00 AM48 °FCool.9 mph87%29.89 "HgN/A
1:30 AM48 °FCool.9 mph87%29.89 "HgN/A
1:00 AM50 °FCool.10 mph76%29.89 "HgN/A
12:30 AM50 °FCool.10 mph82%29.89 "HgN/A
12:00 AM50 °FScattered showers. Passing clouds.12 mph82%29.86 "HgN/A
11:30 PM
Thu, Jun 30
50 °FScattered showers. Overcast.12 mph82%29.86 "HgN/A
11:00 PM52 °FScattered showers. Overcast.12 mph77%29.86 "HgN/A
10:30 PM52 °FOvercast.12 mph82%29.83 "HgN/A
10:00 PM52 °FMostly cloudy.14 mph88%29.83 "HgN/A
9:30 PM52 °FSprinkles. Partly cloudy.14 mph94%29.83 "HgN/A
9:00 PM54 °FPassing clouds.12 mph88%29.80 "HgN/A
8:30 PM54 °FLight rain. Mostly cloudy.12 mph94%29.80 "HgN/A
8:00 PM54 °FPartly cloudy.12 mph94%29.77 "HgN/A
7:30 PM54 °FPassing clouds.13 mph94%29.74 "HgN/A
7:00 PM54 °FLight rain. Mostly cloudy.12 mph94%29.74 "HgN/A
6:30 PM55 °FLight rain. Passing clouds.9 mph88%29.71 "HgN/A
6:00 PM55 °FSprinkles. Overcast.10 mph94%29.71 "HgN/A
5:30 PM55 °FDrizzle. Overcast.10 mph94%29.68 "HgN/A
5:00 PM55 °FLight rain. Mostly cloudy.14 mph94%29.68 "HgN/A
4:30 PM55 °FLight rain. Overcast.7 mph100%29.65 "HgN/A
4:00 PM55 °FSprinkles. Cloudy.10 mph100%29.65 "Hg4 mi
3:30 PM57 °FMostly cloudy.8 mph94%29.65 "HgN/A
3:00 PM59 °FPartly sunny.7 mph82%29.62 "HgN/A
2:30 PM59 °FBroken clouds.6 mph88%29.62 "HgN/A
2:00 PM59 °FOvercast.7 mph82%29.62 "HgN/A
1:30 PM59 °FMore clouds than sun.7 mph82%29.62 "HgN/A
1:00 PM57 °FLight rain. Partly sunny.5 mph94%29.65 "HgN/A
12:30 PM55 °FOvercast.6 mph94%29.65 "HgN/A
12:00 PM55 °FMostly cloudy.5 mph94%29.65 "HgN/A
11:30 AM54 °FMostly cloudy.6 mph100%29.65 "HgN/A
11:00 AM54 °FLow clouds.6 mph100%29.65 "HgN/A
Weather by CustomWeather, © 2016

See weather overviewHow to use our weather pages